Marshfield, WI

12:41 AM CDT on July 28, 2017 (GMT -0500)
Marshfield Municipal

Weather History for KMFI - January, 2012

Change the Weather History Date:

Wednesday, January 11, 2012

  Actual Average Record
Temperature  
Mean Temperature 34 °F -  
Max Temperature 43 °F 21 °F 43 °F (2002)
Min Temperature 24 °F 0 °F -26 °F (1977)
Degree Days  
Heating Degree Days 32    
Moisture  
Dew Point 28 °F    
Average Humidity 78    
Maximum Humidity 87    
Minimum Humidity 62    
Precipitation  
Precipitation 0.00 in - - ()
Sea Level Pressure  
Sea Level Pressure 29.62 in    
Wind  
Wind Speed 7 mph (WNW)    
Max Wind Speed 18 mph    
Max Gust Speed 25 mph    
Visibility 9 miles    
Events Snow    
Averages and records for this station are not official NWS values.
T = Trace of Precipitation, MM = Missing Value Source: NWS Daily Summary

Daily Weather History Graph

Daily Weather History Graph

Search for Another Location

Airport or City:

Trip Planner

Search our weather history database for the weather conditions in past years. The results will help you decide how hot, cold, wet, or windy it might be!

Date:

Astronomy

Jan. 11, 2012 Rise Set
Actual Time 7:36 AM CST 4:41 PM CST
Civil Twilight 7:03 AM CST 5:13 PM CST
Nautical Twilight 6:27 AM CST 5:50 PM CST
Astronomical Twilight 5:51 AM CST 6:25 PM CST
Moon 7:48 PM CST (1/11) 8:40 AM CST (1/11)
Length of Visible Light 10h 10m
Length of Day
9h 04m
Waning Gibbous, 93% of the Moon is Illuminated
Jan 11
Waning Gibbous
Jan 16
Last Quarter
Jan 23
New
Jan 30
First Quarter
Feb 7
Full

Hourly Weather History & Observations

Time (CST) Temp. Windchill Dew Point Humidity Pressure Visibility Wind Dir Wind Speed Gust Speed Precip Events Conditions
12:54 AM 34.0 °F 29.8 °F 28.0 °F 79% 29.66 in 10.0 mi South 4.6 mph - N/A   Clear
1:54 AM 34.0 °F 31.0 °F 28.0 °F 79% 29.67 in 10.0 mi South 3.5 mph - N/A   Clear
2:54 AM 33.1 °F 28.7 °F 27.0 °F 78% 29.66 in 10.0 mi South 4.6 mph - N/A   Clear
3:54 AM 32.0 °F - 27.0 °F 82% 29.64 in 10.0 mi Calm Calm - N/A   Clear
4:54 AM 30.9 °F - 26.1 °F 82% 29.64 in 10.0 mi Calm Calm - N/A   Clear
5:54 AM 33.1 °F 30.0 °F 27.0 °F 78% 29.63 in 10.0 mi South 3.5 mph - N/A   Clear
6:54 AM 32.0 °F 27.5 °F 27.0 °F 82% 29.62 in 10.0 mi South 4.6 mph - N/A   Clear
7:54 AM 32.0 °F 28.7 °F 27.0 °F 82% 29.62 in 9.0 mi South 3.5 mph - N/A   Clear
8:54 AM 33.1 °F 30.0 °F 28.0 °F 82% 29.63 in 9.0 mi South 3.5 mph - N/A   Clear
9:54 AM 36.0 °F 32.1 °F 28.9 °F 76% 29.62 in 9.0 mi SW 4.6 mph - 0.00 in Snow Light Snow
10:54 AM 42.1 °F 39.2 °F 30.0 °F 62% 29.60 in 10.0 mi WSW 4.6 mph - 0.00 in   Clear
11:54 AM 42.1 °F 39.2 °F 30.0 °F 62% 29.59 in 10.0 mi WNW 4.6 mph - N/A   Clear
12:54 PM 43.0 °F 40.3 °F 30.9 °F 62% 29.58 in 10.0 mi West 4.6 mph - N/A   Clear
1:54 PM 43.0 °F 40.3 °F 30.9 °F 62% 29.58 in 10.0 mi WNW 4.6 mph - N/A   Clear
2:54 PM 42.1 °F 35.2 °F 33.1 °F 70% 29.59 in 10.0 mi NW 12.7 mph - N/A   Clear
3:54 PM 39.0 °F 32.3 °F 32.0 °F 76% 29.61 in 10.0 mi WNW 10.4 mph - N/A   Clear
4:54 PM 37.0 °F 28.5 °F 30.9 °F 79% 29.62 in 9.0 mi WNW 13.8 mph - N/A   Scattered Clouds
5:05 PM 37.4 °F 28.5 °F 32.0 °F 81% 29.58 in 9.0 mi NW 15.0 mph 21.9 mph N/A   Mostly Cloudy
5:26 PM 35.6 °F 26.6 °F 30.2 °F 81% 29.58 in 10.0 mi NW 13.8 mph - N/A   Overcast
5:54 PM 35.1 °F 25.5 °F 30.9 °F 85% 29.62 in 10.0 mi NW 15.0 mph - N/A   Overcast
6:07 PM 35.6 °F 27.1 °F 30.2 °F 81% 29.58 in 10.0 mi NNW 12.7 mph - N/A   Overcast
7:25 PM 33.8 °F 23.9 °F 30.2 °F 87% 29.60 in 10.0 mi NW 15.0 mph - N/A   Overcast
7:54 PM 32.0 °F 20.8 °F 28.0 °F 85% 29.64 in 10.0 mi NW 17.3 mph 24.2 mph N/A   Overcast
8:26 PM 32.0 °F 20.5 °F 26.6 °F 80% 29.60 in 10.0 mi NW 18.4 mph 25.3 mph N/A   Overcast
8:54 PM 30.9 °F 19.4 °F 27.0 °F 85% 29.64 in 4.0 mi NW 17.3 mph - 0.00 in Snow Light Snow
9:54 PM 28.9 °F 16.9 °F 24.1 °F 82% 29.64 in 7.0 mi NNW 17.3 mph 24.2 mph 0.00 in Snow Light Snow
10:54 PM 26.1 °F 12.7 °F 21.9 °F 84% 29.65 in 5.0 mi NW 18.4 mph - 0.00 in Snow Light Snow
11:38 PM 24.8 °F 11.5 °F 19.4 °F 80% 29.61 in 2.5 mi NW 17.3 mph - 0.00 in Snow Light Snow
11:49 PM 24.8 °F 11.9 °F 19.4 °F 80% 29.61 in 1.8 mi NW 16.1 mph - 0.00 in Snow Light Snow
11:54 PM 24.1 °F 11.0 °F 19.9 °F 84% 29.65 in 1.8 mi NW 16.1 mph - 0.00 in Snow Light Snow